This is the latest recevied weather packets stored in our database for station/object SP3TOM-10. If no packets are shown the sender has not sent any weather packets the latest 10 day(s).
| Time | Temp. | Humidity | Pressure | Rain* | Wind** | Luminosity | Snow |
|---|---|---|---|---|---|---|---|
| 1777886219 | 25° C | 32% | 1001.9 hPa | - | - | - | - |
| 1777885319 | 25.56° C | 32% | 1002 hPa | - | - | - | - |
| 1777884418 | 24.44° C | 34% | 1001.9 hPa | - | - | - | - |
| 1777883518 | 23.89° C | 35% | 1001.8 hPa | - | - | - | - |
| 1777882618 | 23.33° C | 35% | 1001.5 hPa | - | - | - | - |
| 1777881718 | 22.78° C | 35% | 1001.5 hPa | - | - | - | - |
| 1777880818 | 22.78° C | 35% | 1001.2 hPa | - | - | - | - |
| 1777879918 | 22.22° C | 35% | 1001.4 hPa | - | - | - | - |
| 1777879017 | 21.67° C | 34% | 1001.2 hPa | - | - | - | - |
| 1777878117 | 21.67° C | 34% | 1001.3 hPa | - | - | - | - |
| 1777877217 | 21.11° C | 35% | 1001.2 hPa | - | - | - | - |
| 1777876317 | 21.11° C | 34% | 1001.3 hPa | - | - | - | - |
| 1777875417 | 20.56° C | 34% | 1001 hPa | - | - | - | - |
| 1777874517 | 20.56° C | 33% | 1000.7 hPa | - | - | - | - |
| 1777873616 | 20° C | 33% | 1000.6 hPa | - | - | - | - |
| 1777872716 | 20° C | 34% | 1000.6 hPa | - | - | - | - |
| 1777871816 | 20° C | 33% | 1000.7 hPa | - | - | - | - |
| 1777870916 | 20° C | 33% | 1000.9 hPa | - | - | - | - |
| 1777870016 | 20° C | 32% | 1000.7 hPa | - | - | - | - |
| 1777869116 | 20° C | 32% | 1000.6 hPa | - | - | - | - |
| 1777868215 | 20° C | 32% | 1000.5 hPa | - | - | - | - |
| 1777867315 | 20° C | 32% | 1000.2 hPa | - | - | - | - |
| 1777866415 | 20° C | 31% | 1000.2 hPa | - | - | - | - |
| 1777865515 | 20.56° C | 31% | 1000.2 hPa | - | - | - | - |
| 1777864615 | 20.56° C | 31% | 1000.1 hPa | - | - | - | - |
* Rain since midnight (hover to see other rain measurements)
** Current wind speed in m/s (hover to see current wind gust speed)